N39YL KSAN-KLAX

Flight info

Callsign N39YL
Flight time N/A
Altitude 10000
Route CWARD2 SLI
Aircraft BE9L/L-VGDW/C

Departure

Time 2026-05-05 19:00
Airport San Diego International Airport (KSAN)

Arrival

Time N/A
Airport Los Angeles International Airport (KLAX)
Time Latitude Longitude Altitude Speed Heading
2026-05-05 18:50 32.73427 -117.18525 20 ft 0 kts 196°
2026-05-05 18:54 32.73412 -117.18509 20 ft 0 kts 313°
2026-05-05 18:54 32.73410 -117.18518 20 ft 5 kts 212°
2026-05-05 18:54 32.73352 -117.18471 20 ft 17 kts 108°
2026-05-05 18:55 32.73310 -117.18296 20 ft 26 kts 106°
2026-05-05 18:55 32.73253 -117.18067 20 ft 31 kts 107°
2026-05-05 18:55 32.73191 -117.17809 20 ft 34 kts 107°
2026-05-05 18:55 32.73108 -117.17569 20 ft 27 kts 126°
2026-05-05 18:56 32.73089 -117.17545 20 ft 0 kts 137°
2026-05-05 18:58 32.73058 -117.17522 20 ft 11 kts 167°
2026-05-05 18:58 32.73017 -117.17572 20 ft 0 kts 284°
2026-05-05 18:58 32.73018 -117.17577 20 ft 0 kts 283°
2026-05-05 18:59 32.73087 -117.17865 20 ft 81 kts 286°
2026-05-05 18:59 32.73293 -117.18703 194 ft 114 kts 286°
2026-05-05 19:00 32.73535 -117.19679 472 ft 133 kts 286°
2026-05-05 19:00 32.73927 -117.20711 728 ft 145 kts 304°
2026-05-05 19:00 32.74493 -117.21738 978 ft 151 kts 302°
2026-05-05 19:00 32.75077 -117.22816 1200 ft 162 kts 302°
2026-05-05 19:01 32.75706 -117.23980 1455 ft 172 kts 302°
2026-05-05 19:01 32.76364 -117.25201 1708 ft 178 kts 302°
2026-05-05 19:01 32.77032 -117.26443 1956 ft 182 kts 302°
2026-05-05 19:01 32.77717 -117.27717 2207 ft 184 kts 302°
2026-05-05 19:02 32.78416 -117.29018 2459 ft 185 kts 302°
2026-05-05 19:02 32.79102 -117.30294 2705 ft 185 kts 302°
2026-05-05 19:02 32.79801 -117.31583 2952 ft 185 kts 305°
2026-05-05 19:02 32.80587 -117.32812 3203 ft 185 kts 307°
2026-05-05 19:03 32.81368 -117.34020 3449 ft 185 kts 307°
2026-05-05 19:03 32.82147 -117.35229 3696 ft 185 kts 307°
2026-05-05 19:03 32.82927 -117.36439 3943 ft 185 kts 307°
2026-05-05 19:03 32.83712 -117.37656 4192 ft 184 kts 307°
2026-05-05 19:04 32.84490 -117.38863 4439 ft 184 kts 307°
2026-05-05 19:04 32.85268 -117.40071 4687 ft 184 kts 307°
2026-05-05 19:04 32.86036 -117.41260 4931 ft 183 kts 306°
2026-05-05 19:04 32.86809 -117.42459 5177 ft 183 kts 305°
2026-05-05 19:05 32.87587 -117.43668 5426 ft 183 kts 304°
2026-05-05 19:05 32.88366 -117.44878 5675 ft 184 kts 304°
2026-05-05 19:05 32.89137 -117.46077 5921 ft 184 kts 303°
2026-05-05 19:05 32.89920 -117.47293 6171 ft 185 kts 303°
2026-05-05 19:06 32.90702 -117.48512 6420 ft 186 kts 303°
2026-05-05 19:06 32.91496 -117.49748 6671 ft 187 kts 303°
2026-05-05 19:06 32.92284 -117.50975 6920 ft 189 kts 302°
2026-05-05 19:06 32.93079 -117.52210 7170 ft 190 kts 302°
2026-05-05 19:07 32.93891 -117.53477 7423 ft 191 kts 303°
2026-05-05 19:07 32.94709 -117.54751 7678 ft 192 kts 303°
2026-05-05 19:07 32.95525 -117.56023 7931 ft 194 kts 303°
2026-05-05 19:07 32.96347 -117.57304 8185 ft 195 kts 303°